TimeCDT,TemperatureF,Dew PointF,Humidity,Sea Level PressureIn,VisibilityMPH,Wind Direction,Wind SpeedMPH,Gust SpeedMPH,PrecipitationIn,Events,Conditions,WindDirDegrees,DateUTC
12:56 AM,25.0,21.0,85,30.31,-9999.0,NNE,8.1,-,N/A,,Unknown,20,2013-04-05 05:56:00
1:56 AM,24.1,19.9,84,30.31,-9999.0,NE,8.1,-,N/A,,Unknown,40,2013-04-05 06:56:00
2:56 AM,23.0,19.0,85,30.31,-9999.0,NE,5.8,-,N/A,,Unknown,40,2013-04-05 07:56:00
3:56 AM,21.9,18.0,85,30.29,-9999.0,NE,5.8,-,N/A,,Unknown,40,2013-04-05 08:56:00
4:56 AM,21.9,18.0,85,30.28,-9999.0,ENE,4.6,-,N/A,,Unknown,60,2013-04-05 09:56:00
5:56 AM,21.0,17.1,85,30.26,-9999.0,East,5.8,-,N/A,,Unknown,90,2013-04-05 10:56:00
6:56 AM,21.0,18.0,88,30.25,-9999.0,ESE,3.5,-,N/A,,Unknown,120,2013-04-05 11:56:00
7:56 AM,21.9,19.0,89,30.24,-9999.0,SSE,8.1,-,N/A,,Unknown,150,2013-04-05 12:56:00
8:56 AM,24.1,21.0,88,30.22,-9999.0,SSE,9.2,-,N/A,,Unknown,160,2013-04-05 13:56:00
9:56 AM,26.1,21.9,84,30.20,-9999.0,South,13.8,-,N/A,,Unknown,170,2013-04-05 14:56:00
10:56 AM,27.0,25.0,92,30.18,-9999.0,South,17.3,-,0.01,,Unknown,170,2013-04-05 15:56:00
11:56 AM,28.9,26.1,89,30.15,-9999.0,SSE,18.4,-,N/A,,Unknown,160,2013-04-05 16:56:00
12:56 PM,30.9,26.1,82,30.12,-9999.0,SSE,18.4,-,N/A,,Unknown,160,2013-04-05 17:56:00
1:56 PM,34.0,28.9,82,30.05,-9999.0,SSE,19.6,-,N/A,,Unknown,150,2013-04-05 18:56:00
2:56 PM,34.0,30.0,85,30.00,-9999.0,SE,20.7,28.8,N/A,,Unknown,140,2013-04-05 19:56:00
3:56 PM,36.0,30.0,79,29.96,-9999.0,SSE,25.3,31.1,N/A,,Unknown,150,2013-04-05 20:56:00
4:56 PM,36.0,30.9,82,29.94,-9999.0,SSE,20.7,27.6,N/A,,Unknown,150,2013-04-05 21:56:00
5:56 PM,36.0,30.9,82,29.93,-9999.0,SE,19.6,27.6,N/A,,Unknown,140,2013-04-05 22:56:00
6:56 PM,34.0,30.9,89,29.91,-9999.0,SE,15.0,23.0,N/A,,Unknown,140,2013-04-05 23:56:00
7:56 PM,33.1,30.0,89,29.87,-9999.0,SE,12.7,23.0,0.01,,Unknown,140,2013-04-06 00:56:00
8:56 PM,34.0,30.0,85,29.85,-9999.0,SSE,18.4,-,N/A,,Unknown,150,2013-04-06 01:56:00
9:56 PM,33.1,30.0,89,29.84,-9999.0,SSE,13.8,-,N/A,,Unknown,150,2013-04-06 02:56:00
10:56 PM,34.0,30.0,85,29.81,-9999.0,SSE,16.1,24.2,N/A,,Unknown,150,2013-04-06 03:56:00
11:56 PM,34.0,30.9,89,29.76,-9999.0,SSE,17.3,23.0,N/A,,Unknown,150,2013-04-06 04:56:00